Year,Month,Day,Hour,Minute,Value (Times are PST for temperature in C)
2010,08,13,00,00,15.70
2010,08,13,00,01,15.70
2010,08,13,00,02,15.70
2010,08,13,00,03,15.70
2010,08,13,00,04,15.70
2010,08,13,00,05,15.70
2010,08,13,00,06,15.70
2010,08,13,00,07,15.70
2010,08,13,00,08,15.70
2010,08,13,00,09,15.70
2010,08,13,00,10,15.70
2010,08,13,00,11,15.70
2010,08,13,00,12,15.80
2010,08,13,00,13,15.80
2010,08,13,00,14,15.80
2010,08,13,00,15,15.80
2010,08,13,00,16,15.80
2010,08,13,00,17,15.80
2010,08,13,00,18,15.80
2010,08,13,00,19,15.80
2010,08,13,00,20,15.80
2010,08,13,00,21,15.80
2010,08,13,00,22,15.80
2010,08,13,00,23,15.80
2010,08,13,00,24,15.80
2010,08,13,00,25,15.80
2010,08,13,00,26,15.70
2010,08,13,00,27,15.70
2010,08,13,00,28,15.70
2010,08,13,00,29,15.70
2010,08,13,00,30,15.70
2010,08,13,00,31,15.70
2010,08,13,00,32,15.70
2010,08,13,00,33,15.60
2010,08,13,00,34,15.60
2010,08,13,00,35,15.60
2010,08,13,00,36,15.60
2010,08,13,00,37,15.60
2010,08,13,00,38,15.60
2010,08,13,00,39,15.60
2010,08,13,00,40,15.50
2010,08,13,00,41,15.50
2010,08,13,00,42,15.50
2010,08,13,00,43,15.50
2010,08,13,00,44,15.50
2010,08,13,00,45,15.40
2010,08,13,00,46,15.40
2010,08,13,00,47,15.40
2010,08,13,00,48,15.30
2010,08,13,00,49,15.30
2010,08,13,00,50,15.30
2010,08,13,00,51,15.30
2010,08,13,00,52,15.30
2010,08,13,00,53,15.40
2010,08,13,00,54,15.40
2010,08,13,00,55,15.40
2010,08,13,00,56,15.40
2010,08,13,00,57,15.40
2010,08,13,00,58,15.30
2010,08,13,00,59,15.30
2010,08,13,01,00,15.30
2010,08,13,01,01,15.30
2010,08,13,01,02,15.30
2010,08,13,01,03,15.20
2010,08,13,01,04,15.20
2010,08,13,01,05,15.20
2010,08,13,01,06,15.10
2010,08,13,01,07,15.10
2010,08,13,01,08,15.00
2010,08,13,01,09,15.00
2010,08,13,01,10,14.90
2010,08,13,01,11,14.90
2010,08,13,01,12,14.90
2010,08,13,01,13,14.80
2010,08,13,01,14,14.80
2010,08,13,01,15,14.70
2010,08,13,01,16,14.70
2010,08,13,01,17,14.60
2010,08,13,01,18,14.60
2010,08,13,01,19,14.50
2010,08,13,01,20,14.50
2010,08,13,01,21,14.40
2010,08,13,01,22,14.30
2010,08,13,01,23,14.30
2010,08,13,01,24,14.20
2010,08,13,01,25,14.20
2010,08,13,01,26,14.20
2010,08,13,01,27,14.20
2010,08,13,01,28,14.20
2010,08,13,01,29,14.20
2010,08,13,01,30,14.20
2010,08,13,01,31,14.20
2010,08,13,01,32,14.10
2010,08,13,01,33,14.10
2010,08,13,01,34,14.10
2010,08,13,01,35,14.10
2010,08,13,01,36,14.10
2010,08,13,01,37,14.10
2010,08,13,01,38,14.10
2010,08,13,01,39,14.10
2010,08,13,01,40,14.10
2010,08,13,01,41,14.10
2010,08,13,01,42,14.10
2010,08,13,01,43,14.10
2010,08,13,01,44,14.10
2010,08,13,01,45,14.10
2010,08,13,01,46,14.10
2010,08,13,01,47,14.10
2010,08,13,01,48,14.10
2010,08,13,01,49,14.10
2010,08,13,01,50,14.10
2010,08,13,01,51,14.10
2010,08,13,01,52,14.10
2010,08,13,01,53,14.10
2010,08,13,01,54,14.00
2010,08,13,01,55,14.00
2010,08,13,01,56,14.00
2010,08,13,01,57,14.00
2010,08,13,01,58,14.00
2010,08,13,01,59,13.90
2010,08,13,02,00,13.90
2010,08,13,02,01,13.90
2010,08,13,02,02,13.90
2010,08,13,02,03,13.90
2010,08,13,02,04,13.90
2010,08,13,02,05,13.90
2010,08,13,02,06,13.90
2010,08,13,02,07,13.90
2010,08,13,02,08,13.90
2010,08,13,02,09,13.80
2010,08,13,02,10,13.80
2010,08,13,02,11,13.80
2010,08,13,02,12,13.80
2010,08,13,02,13,13.80
2010,08,13,02,14,13.80
2010,08,13,02,15,13.80
2010,08,13,02,16,13.80
2010,08,13,02,17,13.80
2010,08,13,02,18,13.80
2010,08,13,02,19,13.80
2010,08,13,02,20,13.70
2010,08,13,02,21,13.70
2010,08,13,02,22,13.70
2010,08,13,02,23,13.70
2010,08,13,02,24,13.70
2010,08,13,02,25,13.70
2010,08,13,02,26,13.70
2010,08,13,02,27,13.70
2010,08,13,02,28,13.70
2010,08,13,02,29,13.70
2010,08,13,02,30,13.70
2010,08,13,02,31,13.70
2010,08,13,02,32,13.70
2010,08,13,02,33,13.70
2010,08,13,02,34,13.70
2010,08,13,02,35,13.70
2010,08,13,02,36,13.70
2010,08,13,02,37,13.70
2010,08,13,02,38,13.80
2010,08,13,02,39,13.80
2010,08,13,02,40,13.80
2010,08,13,02,41,13.80
2010,08,13,02,42,13.80
2010,08,13,02,43,13.80
2010,08,13,02,44,13.90
2010,08,13,02,45,13.90
2010,08,13,02,46,13.90
2010,08,13,02,47,13.90
2010,08,13,02,48,13.90
2010,08,13,02,49,13.90
2010,08,13,02,50,13.90
2010,08,13,02,51,13.90
2010,08,13,02,52,13.90
2010,08,13,02,53,13.90
2010,08,13,02,54,13.90
2010,08,13,02,55,13.90
2010,08,13,02,56,13.90
2010,08,13,02,57,13.90
2010,08,13,02,58,13.90
2010,08,13,02,59,13.90
2010,08,13,03,00,13.90
2010,08,13,03,01,13.90
2010,08,13,03,02,13.80
2010,08,13,03,03,13.80
2010,08,13,03,04,13.80
2010,08,13,03,05,13.80
2010,08,13,03,06,13.80
2010,08,13,03,07,13.80
2010,08,13,03,08,13.80
2010,08,13,03,09,13.80
2010,08,13,03,10,13.80
2010,08,13,03,11,13.80
2010,08,13,03,12,13.80
2010,08,13,03,13,13.70
2010,08,13,03,14,13.70
2010,08,13,03,15,13.70
2010,08,13,03,16,13.70
2010,08,13,03,17,13.70
2010,08,13,03,18,13.70
2010,08,13,03,19,13.70
2010,08,13,03,20,13.70
2010,08,13,03,21,13.70
2010,08,13,03,22,13.70
2010,08,13,03,23,13.70
2010,08,13,03,24,13.70
2010,08,13,03,25,13.70
2010,08,13,03,26,13.70
2010,08,13,03,27,13.70
2010,08,13,03,28,13.70
2010,08,13,03,29,13.70
2010,08,13,03,30,13.70
2010,08,13,03,31,13.70
2010,08,13,03,32,13.70
2010,08,13,03,33,13.70
2010,08,13,03,34,13.70
2010,08,13,03,35,13.70
2010,08,13,03,36,13.70
2010,08,13,03,37,13.70
2010,08,13,03,38,13.60
2010,08,13,03,39,13.60
2010,08,13,03,40,13.60
2010,08,13,03,41,13.60
2010,08,13,03,42,13.60
2010,08,13,03,43,13.60
2010,08,13,03,44,13.60
2010,08,13,03,45,13.60
2010,08,13,03,46,13.60
2010,08,13,03,47,13.60
2010,08,13,03,48,13.60
2010,08,13,03,49,13.60
2010,08,13,03,50,13.60
2010,08,13,03,51,13.60
2010,08,13,03,52,13.60
2010,08,13,03,53,13.70
2010,08,13,03,54,13.70
2010,08,13,03,55,13.70
2010,08,13,03,56,13.70
2010,08,13,03,57,13.70
2010,08,13,03,58,13.60
2010,08,13,03,59,13.60
2010,08,13,04,00,13.60
2010,08,13,04,01,13.60
2010,08,13,04,02,13.60
2010,08,13,04,03,13.50
2010,08,13,04,04,13.50
2010,08,13,04,05,13.50
2010,08,13,04,06,13.50
2010,08,13,04,07,13.50
2010,08,13,04,08,13.50
2010,08,13,04,09,13.50
2010,08,13,04,10,13.50
2010,08,13,04,11,13.50
2010,08,13,04,12,13.50
2010,08,13,04,13,13.50
2010,08,13,04,14,13.40
2010,08,13,04,15,13.40
2010,08,13,04,16,13.40
2010,08,13,04,17,13.40
2010,08,13,04,18,13.40
2010,08,13,04,19,13.40
2010,08,13,04,20,13.40
2010,08,13,04,21,13.40
2010,08,13,04,22,13.50
2010,08,13,04,23,13.50
2010,08,13,04,24,13.50
2010,08,13,04,25,13.50
2010,08,13,04,26,13.50
2010,08,13,04,27,13.50
2010,08,13,04,28,13.50
2010,08,13,04,29,13.50
2010,08,13,04,30,13.50
2010,08,13,04,31,13.50
2010,08,13,04,32,13.50
2010,08,13,04,33,13.50
2010,08,13,04,34,13.50
2010,08,13,04,35,13.50
2010,08,13,04,36,13.50
2010,08,13,04,37,13.40
2010,08,13,04,38,13.40
2010,08,13,04,39,13.40
2010,08,13,04,40,13.40
2010,08,13,04,41,13.30
2010,08,13,04,42,13.30
2010,08,13,04,43,13.30
2010,08,13,04,44,13.30
2010,08,13,04,45,13.30
2010,08,13,04,46,13.30
2010,08,13,04,47,13.30
2010,08,13,04,48,13.30
2010,08,13,04,49,13.30
2010,08,13,04,50,13.30
2010,08,13,04,51,13.30
2010,08,13,04,52,13.30
2010,08,13,04,53,13.30
2010,08,13,04,54,13.30
2010,08,13,04,55,13.30
2010,08,13,04,56,13.30
2010,08,13,04,57,13.30
2010,08,13,04,58,13.30
2010,08,13,04,59,13.30
2010,08,13,05,00,13.30
2010,08,13,05,01,13.30
2010,08,13,05,02,13.30
2010,08,13,05,03,13.30
2010,08,13,05,04,13.30
2010,08,13,05,05,13.30
2010,08,13,05,06,13.30
2010,08,13,05,07,13.30
2010,08,13,05,08,13.30
2010,08,13,05,09,13.30
2010,08,13,05,10,13.30
2010,08,13,05,11,13.30
2010,08,13,05,12,13.30
2010,08,13,05,13,13.30
2010,08,13,05,14,13.30
2010,08,13,05,15,13.30
2010,08,13,05,16,13.30
2010,08,13,05,17,13.30
2010,08,13,05,18,13.30
2010,08,13,05,19,13.30
2010,08,13,05,20,13.30
2010,08,13,05,21,13.30
2010,08,13,05,22,13.30
2010,08,13,05,23,13.30
2010,08,13,05,24,13.20
2010,08,13,05,25,13.20
2010,08,13,05,26,13.20
2010,08,13,05,27,13.10
2010,08,13,05,28,13.10
2010,08,13,05,29,13.20
2010,08,13,05,30,13.20
2010,08,13,05,31,13.20
2010,08,13,05,32,13.10
2010,08,13,05,33,13.10
2010,08,13,05,34,13.10
2010,08,13,05,35,13.10
2010,08,13,05,36,13.10
2010,08,13,05,37,13.10
2010,08,13,05,38,13.00
2010,08,13,05,39,13.00
2010,08,13,05,40,13.00
2010,08,13,05,41,13.00
2010,08,13,05,42,13.00
2010,08,13,05,43,13.00
2010,08,13,05,44,13.00
2010,08,13,05,45,13.00
2010,08,13,05,46,13.00
2010,08,13,05,47,13.00
2010,08,13,05,48,13.00
2010,08,13,05,49,12.90
2010,08,13,05,50,12.90
2010,08,13,05,51,12.90
2010,08,13,05,52,12.90
2010,08,13,05,53,12.90
2010,08,13,05,54,12.80
2010,08,13,05,55,12.90
2010,08,13,05,56,12.90
2010,08,13,05,57,12.90
2010,08,13,05,58,12.90
2010,08,13,05,59,12.90
2010,08,13,06,00,12.90
2010,08,13,06,01,12.90
2010,08,13,06,02,12.90
2010,08,13,06,03,12.90
2010,08,13,06,04,12.90
2010,08,13,06,05,12.80
2010,08,13,06,06,12.80
2010,08,13,06,07,12.80
2010,08,13,06,08,12.80
2010,08,13,06,09,12.80
2010,08,13,06,10,12.80
2010,08,13,06,11,12.80
2010,08,13,06,12,12.80
2010,08,13,06,13,12.80
2010,08,13,06,14,12.80
2010,08,13,06,15,12.80
2010,08,13,06,16,12.80
2010,08,13,06,17,12.80
2010,08,13,06,18,12.80
2010,08,13,06,19,12.80
2010,08,13,06,20,12.80
2010,08,13,06,21,12.80
2010,08,13,06,22,12.80
2010,08,13,06,23,12.80
2010,08,13,06,24,12.80
2010,08,13,06,25,12.80
2010,08,13,06,26,12.80
2010,08,13,06,27,12.80
2010,08,13,06,28,12.80
2010,08,13,06,29,12.80
2010,08,13,06,30,12.80
2010,08,13,06,31,12.80
2010,08,13,06,32,12.80
2010,08,13,06,33,12.90
2010,08,13,06,34,12.90
2010,08,13,06,35,12.90
2010,08,13,06,36,13.00
2010,08,13,06,37,13.00
2010,08,13,06,38,13.00
2010,08,13,06,39,13.00
2010,08,13,06,40,13.00
2010,08,13,06,41,13.00
2010,08,13,06,42,13.00
2010,08,13,06,43,13.00
2010,08,13,06,44,13.10
2010,08,13,06,45,13.10
2010,08,13,06,46,13.10
2010,08,13,06,47,13.20
2010,08,13,06,48,13.20
2010,08,13,06,49,13.30
2010,08,13,06,50,13.30
2010,08,13,06,51,13.40
2010,08,13,06,52,13.40
2010,08,13,06,53,13.50
2010,08,13,06,54,13.50
2010,08,13,06,55,13.60
2010,08,13,06,56,13.60
2010,08,13,06,57,13.70
2010,08,13,06,58,13.70
2010,08,13,06,59,13.70
2010,08,13,07,00,13.70
2010,08,13,07,01,13.70
2010,08,13,07,02,13.80
2010,08,13,07,03,13.80
2010,08,13,07,04,13.80
2010,08,13,07,05,13.90
2010,08,13,07,06,13.90
2010,08,13,07,07,13.90
2010,08,13,07,08,13.90
2010,08,13,07,09,14.00
2010,08,13,07,10,14.00
2010,08,13,07,11,14.10
2010,08,13,07,12,14.10
2010,08,13,07,13,14.20
2010,08,13,07,14,14.20
2010,08,13,07,15,14.20
2010,08,13,07,16,14.20
2010,08,13,07,17,14.30
2010,08,13,07,18,14.30
2010,08,13,07,19,14.40
2010,08,13,07,20,14.50
2010,08,13,07,21,14.60
2010,08,13,07,22,14.70
2010,08,13,07,23,14.80
2010,08,13,07,24,14.80
2010,08,13,07,25,14.90
2010,08,13,07,26,15.00
2010,08,13,07,27,15.10
2010,08,13,07,28,15.20
2010,08,13,07,29,15.30
2010,08,13,07,30,15.50
2010,08,13,07,31,15.50
2010,08,13,07,32,15.60
2010,08,13,07,33,15.80
2010,08,13,07,34,15.90
2010,08,13,07,35,16.00
2010,08,13,07,36,16.10
2010,08,13,07,37,16.20
2010,08,13,07,38,16.20
2010,08,13,07,39,16.30
2010,08,13,07,40,16.30
2010,08,13,07,41,16.40
2010,08,13,07,42,16.40
2010,08,13,07,43,16.40
2010,08,13,07,44,16.40
2010,08,13,07,45,16.40
2010,08,13,07,46,16.40
2010,08,13,07,47,16.40
2010,08,13,07,48,16.40
2010,08,13,07,49,16.60
2010,08,13,07,50,16.60
2010,08,13,07,51,16.70
2010,08,13,07,52,16.70
2010,08,13,07,53,16.80
2010,08,13,07,54,16.90
2010,08,13,07,55,17.00
2010,08,13,07,56,17.10
2010,08,13,07,57,17.10
2010,08,13,07,58,17.20
2010,08,13,07,59,17.20
2010,08,13,08,00,17.20
2010,08,13,08,01,17.30
2010,08,13,08,02,17.30
2010,08,13,08,03,17.30
2010,08,13,08,04,17.50
2010,08,13,08,05,17.60
2010,08,13,08,06,17.70
2010,08,13,08,07,17.70
2010,08,13,08,08,17.80
2010,08,13,08,09,17.90
2010,08,13,08,10,17.90
2010,08,13,08,11,18.10
2010,08,13,08,12,18.10
2010,08,13,08,13,18.20
2010,08,13,08,14,18.30
2010,08,13,08,15,18.40
2010,08,13,08,16,18.50
2010,08,13,08,17,18.60
2010,08,13,08,18,18.70
2010,08,13,08,19,18.80
2010,08,13,08,20,18.80
2010,08,13,08,21,18.90
2010,08,13,08,22,19.00
2010,08,13,08,23,19.10
2010,08,13,08,24,19.20
2010,08,13,08,25,19.30
2010,08,13,08,26,19.30
2010,08,13,08,27,19.20
2010,08,13,08,28,19.10
2010,08,13,08,29,19.10
2010,08,13,08,30,19.10
2010,08,13,08,31,19.10
2010,08,13,08,32,19.10
2010,08,13,08,33,19.10
2010,08,13,08,34,19.10
2010,08,13,08,35,19.20
2010,08,13,08,36,19.20
2010,08,13,08,37,19.30
2010,08,13,08,38,19.30
2010,08,13,08,39,19.30
2010,08,13,08,40,19.30
2010,08,13,08,41,19.30
2010,08,13,08,42,19.30
2010,08,13,08,43,19.30
2010,08,13,08,44,19.30
2010,08,13,08,45,19.20
2010,08,13,08,46,19.20
2010,08,13,08,47,19.30
2010,08,13,08,48,19.30
2010,08,13,08,49,19.30
2010,08,13,08,50,19.30
2010,08,13,08,51,19.30
2010,08,13,08,52,19.20
2010,08,13,08,53,19.10
2010,08,13,08,54,19.10
2010,08,13,08,55,19.10
2010,08,13,08,56,19.00
2010,08,13,08,57,18.90
2010,08,13,08,58,18.90
2010,08,13,08,59,18.90
2010,08,13,09,00,18.90
2010,08,13,09,01,18.90
2010,08,13,09,02,18.90
2010,08,13,09,03,18.90
2010,08,13,09,04,19.00
2010,08,13,09,05,19.10
2010,08,13,09,06,19.20
2010,08,13,09,07,19.30
2010,08,13,09,08,19.50
2010,08,13,09,09,19.60
2010,08,13,09,10,19.60
2010,08,13,09,11,19.70
2010,08,13,09,12,19.70
2010,08,13,09,13,19.70
2010,08,13,09,14,19.80
2010,08,13,09,15,19.90
2010,08,13,09,16,19.90
2010,08,13,09,17,19.90
2010,08,13,09,18,19.90
2010,08,13,09,19,19.90
2010,08,13,09,20,19.90
2010,08,13,09,21,19.90
2010,08,13,09,22,19.80
2010,08,13,09,23,19.70
2010,08,13,09,24,19.60
2010,08,13,09,25,19.60
2010,08,13,09,26,19.60
2010,08,13,09,27,19.50
2010,08,13,09,28,19.40
2010,08,13,09,29,19.40
2010,08,13,09,30,19.40
2010,08,13,09,31,19.40
2010,08,13,09,32,19.50
2010,08,13,09,33,19.60
2010,08,13,09,34,19.70
2010,08,13,09,35,19.80
2010,08,13,09,36,19.90
2010,08,13,09,37,19.90
2010,08,13,09,38,20.10
2010,08,13,09,39,20.20
2010,08,13,09,40,20.20
2010,08,13,09,41,20.30
2010,08,13,09,42,20.40
2010,08,13,09,43,20.50
2010,08,13,09,44,20.60
2010,08,13,09,45,20.80
2010,08,13,09,46,21.00
2010,08,13,09,47,21.10
2010,08,13,09,48,21.20
2010,08,13,09,49,21.20
2010,08,13,09,50,21.20
2010,08,13,09,51,21.20
2010,08,13,09,52,21.10
2010,08,13,09,53,21.10
2010,08,13,09,54,21.00
2010,08,13,09,55,21.00
2010,08,13,09,56,21.00
2010,08,13,09,57,21.00
2010,08,13,09,58,20.90
2010,08,13,09,59,20.90
2010,08,13,10,00,20.90
2010,08,13,10,01,21.00
2010,08,13,10,02,21.00
2010,08,13,10,03,21.00
2010,08,13,10,04,21.10
2010,08,13,10,05,21.30
2010,08,13,10,06,21.40
2010,08,13,10,07,21.60
2010,08,13,10,08,21.70
2010,08,13,10,09,21.80
2010,08,13,10,10,21.90
2010,08,13,10,11,22.00
2010,08,13,10,12,22.10
2010,08,13,10,13,22.10
2010,08,13,10,14,22.10
2010,08,13,10,15,22.00
2010,08,13,10,16,21.80
2010,08,13,10,17,21.60
2010,08,13,10,18,21.30
2010,08,13,10,19,21.10
2010,08,13,10,20,21.00
2010,08,13,10,21,20.80
2010,08,13,10,22,20.70
2010,08,13,10,23,20.60
2010,08,13,10,24,20.50
2010,08,13,10,25,20.40
2010,08,13,10,26,20.40
2010,08,13,10,27,20.40
2010,08,13,10,28,20.20
2010,08,13,10,29,20.20
2010,08,13,10,30,20.20
2010,08,13,10,31,20.20
2010,08,13,10,32,20.20
2010,08,13,10,33,20.40
2010,08,13,10,34,20.50
2010,08,13,10,35,20.50
2010,08,13,10,36,20.40
2010,08,13,10,37,20.50
2010,08,13,10,38,20.50
2010,08,13,10,39,20.50
2010,08,13,10,40,20.60
2010,08,13,10,41,20.70
2010,08,13,10,42,20.90
2010,08,13,10,43,20.90
2010,08,13,10,44,21.00
2010,08,13,10,45,21.10
2010,08,13,10,46,21.10
2010,08,13,10,47,21.30
2010,08,13,10,48,21.30
2010,08,13,10,49,21.60
2010,08,13,10,50,21.70
2010,08,13,10,51,21.80
2010,08,13,10,52,21.60
2010,08,13,10,53,21.30
2010,08,13,10,54,21.10
2010,08,13,10,55,20.90
2010,08,13,10,56,20.80
2010,08,13,10,57,20.80
2010,08,13,10,58,20.90
2010,08,13,10,59,20.90
2010,08,13,11,00,20.90
2010,08,13,11,01,20.90
2010,08,13,11,02,21.00
2010,08,13,11,03,21.10
2010,08,13,11,04,21.20
2010,08,13,11,05,21.30
2010,08,13,11,06,21.30
2010,08,13,11,07,21.20
2010,08,13,11,08,21.20
2010,08,13,11,09,21.20
2010,08,13,11,10,21.30
2010,08,13,11,11,21.30
2010,08,13,11,12,21.30
2010,08,13,11,13,21.10
2010,08,13,11,14,20.90
2010,08,13,11,15,20.80
2010,08,13,11,16,20.70
2010,08,13,11,17,20.70
2010,08,13,11,18,20.80
2010,08,13,11,19,20.90
2010,08,13,11,20,20.90
2010,08,13,11,21,21.10
2010,08,13,11,22,21.20
2010,08,13,11,23,21.30
2010,08,13,11,24,21.30
2010,08,13,11,25,21.30
2010,08,13,11,26,21.30
2010,08,13,11,27,21.20
2010,08,13,11,28,21.10
2010,08,13,11,29,21.10
2010,08,13,11,30,21.20
2010,08,13,11,31,21.30
2010,08,13,11,32,21.50
2010,08,13,11,33,21.60
2010,08,13,11,34,21.70
2010,08,13,11,35,21.70
2010,08,13,11,36,21.70
2010,08,13,11,37,21.70
2010,08,13,11,38,21.60
2010,08,13,11,39,21.60
2010,08,13,11,40,21.60
2010,08,13,11,41,21.60
2010,08,13,11,42,21.70
2010,08,13,11,43,21.90
2010,08,13,11,44,22.00
2010,08,13,11,45,22.00
2010,08,13,11,46,22.00
2010,08,13,11,47,22.00
2010,08,13,11,48,22.00
2010,08,13,11,49,22.00
2010,08,13,11,50,22.10
2010,08,13,11,51,22.20
2010,08,13,11,52,22.30
2010,08,13,11,53,22.40
2010,08,13,11,54,22.50
2010,08,13,11,55,22.70
2010,08,13,11,56,22.80
2010,08,13,11,57,22.90
2010,08,13,11,58,23.00
2010,08,13,11,59,23.10
2010,08,13,12,00,23.00
2010,08,13,12,01,22.90
2010,08,13,12,02,22.90
2010,08,13,12,03,22.80
2010,08,13,12,04,22.80
2010,08,13,12,05,22.70
2010,08,13,12,06,22.60
2010,08,13,12,07,22.50
2010,08,13,12,08,22.50
2010,08,13,12,09,22.60
2010,08,13,12,10,22.60
2010,08,13,12,11,22.60
2010,08,13,12,12,22.60
2010,08,13,12,13,22.50
2010,08,13,12,14,22.60
2010,08,13,12,15,22.70
2010,08,13,12,16,22.80
2010,08,13,12,17,23.00
2010,08,13,12,18,23.20
2010,08,13,12,19,23.40
2010,08,13,12,20,23.60
2010,08,13,12,21,23.70
2010,08,13,12,22,23.90
2010,08,13,12,23,24.20
2010,08,13,12,24,24.50
2010,08,13,12,25,24.70
2010,08,13,12,26,25.10
2010,08,13,12,27,25.40
2010,08,13,12,28,25.60
2010,08,13,12,29,25.80
2010,08,13,12,30,25.90
2010,08,13,12,31,25.90
2010,08,13,12,32,26.00
2010,08,13,12,33,26.00
2010,08,13,12,34,26.00
2010,08,13,12,35,25.90
2010,08,13,12,36,25.90
2010,08,13,12,37,25.80
2010,08,13,12,38,25.80
2010,08,13,12,39,25.70
2010,08,13,12,40,25.70
2010,08,13,12,41,25.80
2010,08,13,12,42,25.80
2010,08,13,12,43,25.80
2010,08,13,12,44,25.80
2010,08,13,12,45,25.80
2010,08,13,12,46,25.70
2010,08,13,12,47,25.60
2010,08,13,12,48,25.60
2010,08,13,12,49,25.50
2010,08,13,12,50,25.40
2010,08,13,12,51,25.40
2010,08,13,12,52,25.30
2010,08,13,12,53,25.30
2010,08,13,12,54,25.40
2010,08,13,12,55,25.50
2010,08,13,12,56,25.60
2010,08,13,12,57,25.80
2010,08,13,12,58,25.90
2010,08,13,12,59,26.00
2010,08,13,13,00,26.10
2010,08,13,13,01,25.90
2010,08,13,13,02,25.80
2010,08,13,13,03,25.50
2010,08,13,13,04,25.40
2010,08,13,13,05,25.30
2010,08,13,13,06,24.90
2010,08,13,13,07,24.60
2010,08,13,13,08,24.50
2010,08,13,13,09,24.30
2010,08,13,13,10,24.20
2010,08,13,13,11,24.30
2010,08,13,13,12,24.10
2010,08,13,13,13,23.90
2010,08,13,13,14,23.80
2010,08,13,13,15,23.70
2010,08,13,13,16,23.70
2010,08,13,13,17,23.40
2010,08,13,13,18,23.30
2010,08,13,13,19,23.30
2010,08,13,13,20,23.30
2010,08,13,13,21,23.40
2010,08,13,13,22,23.60
2010,08,13,13,23,23.70
2010,08,13,13,24,23.70
2010,08,13,13,25,23.70
2010,08,13,13,26,23.80
2010,08,13,13,27,23.90
2010,08,13,13,28,24.00
2010,08,13,13,29,24.10
2010,08,13,13,30,24.30
2010,08,13,13,31,24.60
2010,08,13,13,32,24.80
2010,08,13,13,33,24.90
2010,08,13,13,34,24.90
2010,08,13,13,35,24.70
2010,08,13,13,36,24.60
2010,08,13,13,37,24.60
2010,08,13,13,38,24.60
2010,08,13,13,39,24.70
2010,08,13,13,40,24.90
2010,08,13,13,41,25.10
2010,08,13,13,42,25.40
2010,08,13,13,43,25.70
2010,08,13,13,44,25.90
2010,08,13,13,45,25.90
2010,08,13,13,46,26.00
2010,08,13,13,47,26.10
2010,08,13,13,48,26.10
2010,08,13,13,49,26.20
2010,08,13,13,50,26.20
2010,08,13,13,51,26.30
2010,08,13,13,52,26.40
2010,08,13,13,53,26.40
2010,08,13,13,54,26.50
2010,08,13,13,55,26.70
2010,08,13,13,56,26.80
2010,08,13,13,57,27.00
2010,08,13,13,58,27.20
2010,08,13,13,59,27.50
2010,08,13,14,00,27.70
2010,08,13,14,01,27.80
2010,08,13,14,02,27.90
2010,08,13,14,03,27.80
2010,08,13,14,04,27.60
2010,08,13,14,05,27.50
2010,08,13,14,06,27.40
2010,08,13,14,07,27.20
2010,08,13,14,08,26.70
2010,08,13,14,09,26.30
2010,08,13,14,10,25.90
2010,08,13,14,11,25.60
2010,08,13,14,12,25.50
2010,08,13,14,13,25.50
2010,08,13,14,14,25.60
2010,08,13,14,15,25.70
2010,08,13,14,16,25.90
2010,08,13,14,17,26.40
2010,08,13,14,18,26.70
2010,08,13,14,19,27.10
2010,08,13,14,20,27.40
2010,08,13,14,21,27.90
2010,08,13,14,22,28.20
2010,08,13,14,23,28.40
2010,08,13,14,24,28.40
2010,08,13,14,25,28.30
2010,08,13,14,26,28.30
2010,08,13,14,27,28.20
2010,08,13,14,28,27.70
2010,08,13,14,29,27.20
2010,08,13,14,30,26.50
2010,08,13,14,31,26.20
2010,08,13,14,32,26.00
2010,08,13,14,33,26.10
2010,08,13,14,34,26.30
2010,08,13,14,35,26.60
2010,08,13,14,36,26.70
2010,08,13,14,37,26.80
2010,08,13,14,38,26.90
2010,08,13,14,39,27.30
2010,08,13,14,40,27.50
2010,08,13,14,41,27.50
2010,08,13,14,42,27.30
2010,08,13,14,43,26.80
2010,08,13,14,44,26.60
2010,08,13,14,45,26.60
2010,08,13,14,46,26.30
2010,08,13,14,47,26.00
2010,08,13,14,48,25.70
2010,08,13,14,49,25.50
2010,08,13,14,50,25.60
2010,08,13,14,51,25.70
2010,08,13,14,52,25.80
2010,08,13,14,53,25.90
2010,08,13,14,54,26.00
2010,08,13,14,55,26.10
2010,08,13,14,56,26.40
2010,08,13,14,57,26.60
2010,08,13,14,58,26.80
2010,08,13,14,59,27.10
2010,08,13,15,00,27.30
2010,08,13,15,01,27.50
2010,08,13,15,02,27.80
2010,08,13,15,03,28.10
2010,08,13,15,04,28.50
2010,08,13,15,05,28.60
2010,08,13,15,06,28.30
2010,08,13,15,07,27.70
2010,08,13,15,08,27.40
2010,08,13,15,09,27.20
2010,08,13,15,10,26.80
2010,08,13,15,11,26.70
2010,08,13,15,12,26.60
2010,08,13,15,13,26.60
2010,08,13,15,14,26.60
2010,08,13,15,15,26.70
2010,08,13,15,16,26.70
2010,08,13,15,17,26.80
2010,08,13,15,18,27.00
2010,08,13,15,19,27.30
2010,08,13,15,20,27.60
2010,08,13,15,21,27.90
2010,08,13,15,22,28.00
2010,08,13,15,23,27.80
2010,08,13,15,24,27.30
2010,08,13,15,25,26.80
2010,08,13,15,26,26.50
2010,08,13,15,27,26.10
2010,08,13,15,28,25.70
2010,08,13,15,29,25.40
2010,08,13,15,30,25.20
2010,08,13,15,31,25.20
2010,08,13,15,32,24.90
2010,08,13,15,33,24.70
2010,08,13,15,34,24.60
2010,08,13,15,35,24.60
2010,08,13,15,36,24.70
2010,08,13,15,37,24.70
2010,08,13,15,38,24.70
2010,08,13,15,39,24.70
2010,08,13,15,40,24.70
2010,08,13,15,41,24.80
2010,08,13,15,42,24.90
2010,08,13,15,43,24.80
2010,08,13,15,44,24.80
2010,08,13,15,45,24.80
2010,08,13,15,46,24.90
2010,08,13,15,47,24.90
2010,08,13,15,48,24.90
2010,08,13,15,49,24.90
2010,08,13,15,50,24.80
2010,08,13,15,51,24.80
2010,08,13,15,52,24.90
2010,08,13,15,53,24.90
2010,08,13,15,54,24.90
2010,08,13,15,55,24.80
2010,08,13,15,56,24.90
2010,08,13,15,57,24.80
2010,08,13,15,58,24.70
2010,08,13,15,59,24.80
2010,08,13,16,00,24.80
2010,08,13,16,01,24.90
2010,08,13,16,02,25.10
2010,08,13,16,03,25.20
2010,08,13,16,04,25.30
2010,08,13,16,05,25.30
2010,08,13,16,06,25.30
2010,08,13,16,07,25.40
2010,08,13,16,08,25.50
2010,08,13,16,09,25.60
2010,08,13,16,10,25.70
2010,08,13,16,11,25.70
2010,08,13,16,12,25.80
2010,08,13,16,13,26.00
2010,08,13,16,14,26.10
2010,08,13,16,15,26.20
2010,08,13,16,16,26.20
2010,08,13,16,17,26.10
2010,08,13,16,18,26.00
2010,08,13,16,19,26.00
2010,08,13,16,20,25.90
2010,08,13,16,21,25.80
2010,08,13,16,22,25.60
2010,08,13,16,23,25.40
2010,08,13,16,24,25.20
2010,08,13,16,25,25.00
2010,08,13,16,26,25.00
2010,08,13,16,27,24.90
2010,08,13,16,28,24.90
2010,08,13,16,29,24.90
2010,08,13,16,30,25.00
2010,08,13,16,31,25.00
2010,08,13,16,32,25.00
2010,08,13,16,33,25.10
2010,08,13,16,34,25.20
2010,08,13,16,35,25.20
2010,08,13,16,36,25.40
2010,08,13,16,37,25.40
2010,08,13,16,38,25.60
2010,08,13,16,39,25.60
2010,08,13,16,40,25.60
2010,08,13,16,41,25.60
2010,08,13,16,42,25.50
2010,08,13,16,43,25.60
2010,08,13,16,44,25.60
2010,08,13,16,45,25.50
2010,08,13,16,46,25.40
2010,08,13,16,47,25.30
2010,08,13,16,48,25.20
2010,08,13,16,49,25.00
2010,08,13,16,50,24.90
2010,08,13,16,51,24.90
2010,08,13,16,52,25.10
2010,08,13,16,53,25.10
2010,08,13,16,54,25.20
2010,08,13,16,55,25.30
2010,08,13,16,56,25.30
2010,08,13,16,57,25.40
2010,08,13,16,58,25.40
2010,08,13,16,59,25.60
2010,08,13,17,00,25.80
2010,08,13,17,01,25.80
2010,08,13,17,02,25.80
2010,08,13,17,03,25.90
2010,08,13,17,04,25.90
2010,08,13,17,05,25.90
2010,08,13,17,06,25.90
2010,08,13,17,07,26.00
2010,08,13,17,08,26.00
2010,08,13,17,09,25.90
2010,08,13,17,10,25.90
2010,08,13,17,11,25.90
2010,08,13,17,12,26.00
2010,08,13,17,13,26.10
2010,08,13,17,14,26.20
2010,08,13,17,15,26.10
2010,08,13,17,16,26.10
2010,08,13,17,17,26.00
2010,08,13,17,18,26.00
2010,08,13,17,19,26.00